Time,TemperatureF,DewpointF,PressureIn,WindDirection,WindDirectionDegrees,WindSpeedMPH,WindSpeedGustMPH,Humidity,HourlyPrecipIn,Conditions,Clouds,dailyrainin,SoftwareType,DateUTC
2013-02-07 00:01:00,42.0,39.0,29.81,WNW,303,3.0,6.0,88,0.00,,,0.02,,2013-02-07 08:01:00,
2013-02-07 00:11:00,42.0,39.0,29.81,WNW,303,3.0,6.0,88,0.00,,,0.02,,2013-02-07 08:11:00,
2013-02-07 00:21:00,43.0,39.0,29.80,NW,304,3.0,4.0,87,0.00,,,0.02,,2013-02-07 08:21:00,
2013-02-07 00:31:00,43.0,39.0,29.80,NW,304,3.0,4.0,87,0.00,,,0.02,,2013-02-07 08:31:00,
2013-02-07 00:41:00,43.0,39.0,29.80,NW,304,3.0,4.0,87,0.00,,,0.02,,2013-02-07 08:41:00,
2013-02-07 00:52:00,42.0,40.0,29.81,NW,305,3.0,4.0,91,0.00,,,0.19,,2013-02-07 08:52:00,
2013-02-07 01:01:00,41.0,39.0,29.81,WNW,303,2.0,3.0,94,0.00,,,0.19,,2013-02-07 09:01:00,
2013-02-07 01:11:00,41.0,39.0,29.81,WNW,303,2.0,3.0,94,0.00,,,0.19,,2013-02-07 09:11:00,
2013-02-07 01:21:00,41.0,40.0,29.81,WNW,303,3.0,4.0,97,0.00,,,0.19,,2013-02-07 09:21:00,
2013-02-07 01:31:00,41.0,40.0,29.80,WNW,303,4.0,7.0,98,0.00,,,0.19,,2013-02-07 09:31:00,
2013-02-07 01:41:00,41.0,40.0,29.80,WNW,303,4.0,7.0,98,0.00,,,0.19,,2013-02-07 09:41:00,
2013-02-07 01:51:00,41.0,40.0,29.84,ENE,60,3.0,5.0,97,0.00,,,0.19,,2013-02-07 09:51:00,
2013-02-07 02:01:00,40.0,40.0,29.85,WNW,303,3.0,5.0,100,0.00,,,0.20,,2013-02-07 10:01:00,
2013-02-07 02:11:00,40.0,40.0,29.85,WNW,303,3.0,5.0,100,0.00,,,0.20,,2013-02-07 10:11:00,
2013-02-07 02:21:00,40.0,40.0,29.86,WNW,303,2.0,3.0,100,0.00,,,0.22,,2013-02-07 10:21:00,
2013-02-07 02:31:00,38.0,38.0,29.87,NW,304,4.0,4.0,100,0.00,,,0.23,,2013-02-07 10:31:00,
2013-02-07 02:41:00,38.0,38.0,29.87,NW,304,4.0,4.0,100,0.00,,,0.23,,2013-02-07 10:41:00,
2013-02-07 02:51:00,38.0,38.0,29.88,WNW,303,4.0,6.0,100,0.00,,,0.23,,2013-02-07 10:51:00,
2013-02-07 03:01:00,38.0,38.0,29.88,WNW,303,4.0,6.0,100,0.00,,,0.23,,2013-02-07 11:01:00,
2013-02-07 03:11:00,38.0,38.0,29.88,WNW,303,4.0,6.0,100,0.00,,,0.23,,2013-02-07 11:11:00,
2013-02-07 03:22:00,38.0,38.0,29.88,WNW,303,4.0,6.0,100,0.00,,,0.23,,2013-02-07 11:22:00,
2013-02-07 03:32:00,38.0,38.0,29.88,WNW,303,4.0,6.0,100,0.00,,,0.23,,2013-02-07 11:32:00,
2013-02-07 05:52:00,36.0,36.0,29.94,NW,304,2.0,3.0,100,0.00,,,0.23,,2013-02-07 13:52:00,
2013-02-07 06:01:00,36.0,36.0,29.94,WNW,303,3.0,4.0,100,0.00,,,0.23,,2013-02-07 14:01:00,
2013-02-07 06:11:00,36.0,36.0,29.94,WNW,303,3.0,4.0,100,0.00,,,0.23,,2013-02-07 14:11:00,
2013-02-07 06:21:00,36.0,36.0,29.95,WNW,303,3.0,3.0,100,0.00,,,0.23,,2013-02-07 14:21:00,
2013-02-07 06:31:00,36.0,36.0,29.94,WNW,303,3.0,3.0,100,0.00,,,0.23,,2013-02-07 14:31:00,
2013-02-07 06:41:00,36.0,36.0,29.94,WNW,303,3.0,3.0,100,0.00,,,0.23,,2013-02-07 14:41:00,
2013-02-07 06:52:00,36.0,36.0,29.95,WNW,303,3.0,4.0,100,0.00,,,0.23,,2013-02-07 14:52:00,
2013-02-07 07:01:00,36.0,36.0,29.95,WNW,303,3.0,4.0,100,0.00,,,0.23,,2013-02-07 15:01:00,
2013-02-07 07:11:00,36.0,36.0,29.95,WNW,303,3.0,4.0,100,0.00,,,0.23,,2013-02-07 15:11:00,
2013-02-07 07:21:00,36.0,36.0,29.95,WNW,303,3.0,4.0,100,0.00,,,0.23,,2013-02-07 15:21:00,
2013-02-07 07:31:00,36.0,36.0,29.95,WNW,303,3.0,4.0,100,0.00,,,0.23,,2013-02-07 15:31:00,
2013-02-07 19:22:00,37.0,36.0,30.09,WNW,301,0.0,2.0,95,0.00,,,0.21,,2013-02-08 03:22:00,
2013-02-07 19:32:00,37.0,36.0,30.09,WNW,301,2.0,3.0,95,0.00,,,0.21,,2013-02-08 03:32:00,
2013-02-07 19:42:00,37.0,36.0,30.09,WNW,301,2.0,3.0,95,0.00,,,0.21,,2013-02-08 03:42:00,
2013-02-07 19:52:00,36.0,35.0,30.10,WNW,302,2.0,3.0,97,0.00,,,0.21,,2013-02-08 03:52:00,
2013-02-07 20:01:00,36.0,35.0,30.10,WNW,301,2.0,3.0,98,0.00,,,0.21,,2013-02-08 04:01:00,
2013-02-07 20:11:00,36.0,35.0,30.10,WNW,301,2.0,3.0,98,0.00,,,0.21,,2013-02-08 04:11:00,
2013-02-07 20:21:00,36.0,35.0,30.10,WNW,302,2.0,3.0,98,0.00,,,0.21,,2013-02-08 04:21:00,
2013-02-07 20:31:00,36.0,35.0,30.11,WNW,301,3.0,4.0,98,0.00,,,0.21,,2013-02-08 04:31:00,
2013-02-07 20:41:00,36.0,35.0,30.11,WNW,301,3.0,4.0,98,0.00,,,0.21,,2013-02-08 04:41:00,
2013-02-07 20:51:00,36.0,35.0,30.11,WNW,302,3.0,4.0,98,0.00,,,0.21,,2013-02-08 04:51:00,
2013-02-07 21:01:00,35.0,35.0,30.12,WNW,301,3.0,4.0,99,0.00,,,0.21,,2013-02-08 05:01:00,
2013-02-07 21:11:00,35.0,35.0,30.12,WNW,301,3.0,4.0,99,0.00,,,0.21,,2013-02-08 05:11:00,
2013-02-07 21:22:00,36.0,36.0,30.12,WNW,301,3.0,4.0,100,0.00,,,0.21,,2013-02-08 05:22:00,
2013-02-07 21:31:00,36.0,36.0,30.12,WNW,301,3.0,4.0,100,0.00,,,0.21,,2013-02-08 05:31:00,
2013-02-07 21:41:00,36.0,36.0,30.12,WNW,301,3.0,4.0,100,0.00,,,0.21,,2013-02-08 05:41:00,
2013-02-07 21:52:00,36.0,36.0,30.13,WNW,302,3.0,5.0,100,0.00,,,0.21,,2013-02-08 05:52:00,
2013-02-07 22:01:00,36.0,36.0,30.13,WNW,301,4.0,5.0,100,0.00,,,0.21,,2013-02-08 06:01:00,
2013-02-07 22:11:00,36.0,36.0,30.13,WNW,301,4.0,5.0,100,0.00,,,0.21,,2013-02-08 06:11:00,
2013-02-07 22:21:00,37.0,37.0,30.17,WNW,301,4.0,7.0,100,0.00,,,0.21,,2013-02-08 06:21:00,
2013-02-07 22:31:00,37.0,37.0,30.14,WNW,300,2.0,4.0,100,0.00,,,0.21,,2013-02-08 06:31:00,
2013-02-07 22:41:00,37.0,37.0,30.14,WNW,300,2.0,4.0,100,0.00,,,0.21,,2013-02-08 06:41:00,
2013-02-07 22:51:00,37.0,37.0,30.14,WNW,302,2.0,2.0,100,0.00,,,0.21,,2013-02-08 06:51:00,
2013-02-07 23:01:00,36.0,36.0,30.15,WNW,301,3.0,4.0,100,0.00,,,0.21,,2013-02-08 07:01:00,
2013-02-07 23:11:00,36.0,36.0,30.15,WNW,301,2.0,3.0,100,0.00,,,0.21,,2013-02-08 07:11:00,
2013-02-07 23:21:00,36.0,36.0,30.15,WNW,301,2.0,3.0,100,0.00,,,0.21,,2013-02-08 07:21:00,
2013-02-07 23:31:00,36.0,36.0,30.15,WNW,301,3.0,5.0,100,0.00,,,0.21,,2013-02-08 07:31:00,
2013-02-07 23:41:00,36.0,36.0,30.16,WNW,302,2.0,3.0,100,0.00,,,0.21,,2013-02-08 07:41:00,
2013-02-07 23:52:00,36.0,36.0,30.16,WNW,302,2.0,3.0,100,0.00,,,0.21,,2013-02-08 07:52:00,